E8559 Weather Reports


time (UTC)temp
F
wind
direction
speed
knots
gust
knots
rain 1hr
in
rain 24hr
in
rain mn
in
humidity
%
barometer
mb
20260504194609 68 269 4.3 13.9 0.00 0.00 0.00 45 1009.3
20260504193058 68 249 5.2 13.9 0.00 0.00 0.00 44 1009.4
20260504191626 69 38 3.5 13.0 0.00 0.00 0.00 45 1009.5
20260504190106 68 100 3.5 15.6 0.00 0.00 0.00 46 1009.5
20260504184556 68 312 3.5 10.4 0.00 0.00 0.00 42 1009.7
20260504183056 68 78 3.5 12.2 0.00 0.00 0.00 40 1009.7
20260504181602 69 311 5.2 12.2 0.00 0.00 0.00 40 1010.0
20260504180057 69 225 2.6 12.2 0.00 0.00 0.00 43 1010.0
20260504174559 67 308 4.3 13.9 0.00 0.00 0.00 41 1010.2
20260504173057 68 360 2.6 14.8 0.00 0.00 0.00 40 1010.4
20260504171601 67 355 4.3 12.2 0.00 0.00 0.00 39 1010.4
20260504160104 66 303 3.5 16.5 0.00 0.00 0.00 41 1011.0
20260504120130 49 306 0.9 3.5 0.00 0.00 0.00 70 1013.1
20260504081610 34 284 0.0 1.7 0.00 0.00 0.00 92 1012.1
20260504044557 35 0 0.0 0.0 0.00 0.00 0.00 86 1011.8
20260504043113 35 0 0.0 0.0 0.00 0.00 0.00 86 1011.8
20260504041558 35 0 0.0 0.9 0.00 0.00 0.00 85 1011.7
20260504040058 35 0 0.0 0.0 0.00 0.00 0.00 84 1011.7
20260504034556 36 0 0.0 0.0 0.00 0.00 0.00 83 1011.6
20260504033104 36 0 0.0 0.0 0.00 0.00 0.00 82 1011.6
20260504031602 37 0 0.0 0.0 0.00 0.00 0.00 81 1011.6
20260504030115 37 0 0.0 0.0 0.00 0.00 0.00 79 1011.6
20260504024555 38 0 0.0 0.0 0.00 0.00 0.00 77 1011.5
20260504023058 38 0 0.0 0.0 0.00 0.00 0.00 76 1011.6
20260504021559 39 0 0.0 0.0 0.00 0.00 0.00 74 1011.6
20260504020107 40 0 0.0 0.0 0.00 0.00 0.00 73 1011.5
20260504014604 41 0 0.0 0.0 0.00 0.00 0.00 71 1011.5
20260504013058 42 0 0.0 0.0 0.00 0.00 0.00 70 1011.3
20260504011556 43 0 0.0 0.9 0.00 0.00 0.00 67 1011.1
20260504010101 44 0 0.0 0.0 0.00 0.00 0.00 66 1010.9
20260504004556 45 0 0.0 0.0 0.00 0.00 0.00 66 1010.5
20260504003104 46 0 0.0 0.9 0.00 0.00 0.00 61 1010.3
20260504001600 47 0 0.0 0.9 0.00 0.00 0.00 57 1010.2
20260504000103 49 0 0.0 0.9 0.00 0.00 0.00 53 1009.9
20260503234558 51 0 0.0 1.7 0.00 0.00 0.00 53 1009.9
20260503233102 53 0 0.0 2.6 0.00 0.00 0.00 43 1009.7
20260503231556 54 0 0.9 5.2 0.00 0.00 0.00 39 1009.7
20260503230112 56 154 0.9 3.5 0.00 0.00 0.00 37 1009.6
20260503224556 56 10 1.7 7.8 0.00 0.00 0.00 37 1009.6
20260503223110 56 0 3.5 8.7 0.00 0.00 0.00 36 1009.4
20260503221555 57 278 1.7 5.2 0.00 0.00 0.00 38 1009.3
20260503220055 57 0 1.7 7.0 0.00 0.00 0.00 39 1009.4
20260503214601 57 0 2.6 11.3 0.00 0.00 0.00 39 1009.4
20260503213058 56 34 3.5 11.3 0.00 0.00 0.00 38 1009.4
20260503211557 56 9 3.5 12.2 0.00 0.00 0.00 40 1009.3
20260503210058 55 214 3.5 11.3 0.00 0.00 0.00 39 1009.4
20260503204557 55 13 5.2 13.9 0.00 0.00 0.00 38 1009.2
20260503203054 55 330 2.6 11.3 0.00 0.00 0.00 40 1009.0
20260503201556 54 14 2.6 12.2 0.00 0.00 0.00 42 1009.1
20260503200058 53 273 3.5 13.0 0.00 0.00 0.00 45 1009.3